Track COSMOS 2426 (GLONASS) now! COSMOS 2426 (GLONASS) is classified as:
1 29671U 06062B 25197.85531021 .00000110 00000-0 00000-0 0 9990 2 29671 64.6996 205.6784 0021643 181.5193 181.2056 2.12963397144412